Waukesha, WI

10:44 AM CDT on August 17, 2017 (GMT -0500)
Waukesha County

Weather History for KUES - October, 2012

Change the Weather History Date:

Tuesday, October 30, 2012

  Actual Average Record
Temperature  
Mean Temperature 38 °F -  
Max Temperature 42 °F 55 °F 78 °F (1950)
Min Temperature 33 °F 38 °F 24 °F (1966)
Degree Days  
Heating Degree Days 28    
Moisture  
Dew Point 25 °F    
Average Humidity 63    
Maximum Humidity 81    
Minimum Humidity 42    
Precipitation  
Precipitation 0.00 in - - ()
Sea Level Pressure  
Sea Level Pressure 29.93 in    
Wind  
Wind Speed 15 mph (NNW)    
Max Wind Speed 23 mph    
Max Gust Speed 34 mph    
Visibility 10 miles    
Events      
Averages and records for this station are not official NWS values.
T = Trace of Precipitation, MM = Missing Value Source: NWS Daily Summary

Daily Weather History Graph

Daily Weather History Graph

Search for Another Location

Airport or City:

Trip Planner

Search our weather history database for the weather conditions in past years. The results will help you decide how hot, cold, wet, or windy it might be!

Date:

Astronomy

Oct. 30, 2012 Rise Set
Actual Time 7:25 AM CDT 5:46 PM CDT
Civil Twilight 6:56 AM CDT 6:16 PM CDT
Nautical Twilight 6:22 AM CDT 6:49 PM CDT
Astronomical Twilight 5:49 AM CDT 7:22 PM CDT
Moon 6:14 PM CDT (10/30) 8:14 AM CDT (10/30)
Length of Visible Light 11h 20m
Length of Day
10h 21m
Full, 99% of the Moon is Illuminated
Oct 30
Full
Nov 6
Last Quarter
Nov 13
New
Nov 20
First Quarter
Nov 28
Full

Hourly Weather History & Observations

Time (CDT) Temp. Windchill Dew Point Humidity Pressure Visibility Wind Dir Wind Speed Gust Speed Precip Events Conditions
12:15 AM 35.6 °F 27.5 °F 23.0 °F 60% 30.09 in 10.0 mi NNW 11.5 mph 21.9 mph N/A   Clear
12:35 AM 35.6 °F 27.1 °F 24.8 °F 65% 30.08 in 10.0 mi NNW 12.7 mph 19.6 mph N/A   Clear
12:55 AM 35.6 °F 26.6 °F 26.6 °F 70% 30.08 in 10.0 mi NNW 13.8 mph 23.0 mph N/A   Clear
1:15 AM 35.6 °F 25.9 °F 26.6 °F 70% 30.06 in 10.0 mi NNW 16.1 mph 24.2 mph N/A   Clear
1:35 AM 35.6 °F 25.9 °F 26.6 °F 70% 30.05 in 10.0 mi NNW 16.1 mph 20.7 mph N/A   Clear
1:55 AM 35.6 °F 26.2 °F 26.6 °F 70% 30.04 in 10.0 mi NNW 15.0 mph 23.0 mph N/A   Clear
2:15 AM 35.6 °F 25.9 °F 26.6 °F 70% 30.04 in 10.0 mi NNW 16.1 mph 24.2 mph N/A   Clear
2:35 AM 35.6 °F 26.2 °F 28.4 °F 75% 30.03 in 10.0 mi NNW 15.0 mph 25.3 mph N/A   Clear
2:55 AM 35.6 °F 25.5 °F 28.4 °F 75% 30.02 in 10.0 mi NNW 17.3 mph 29.9 mph N/A   Clear
3:15 AM 35.6 °F 25.2 °F 28.4 °F 75% 30.01 in 10.0 mi NNW 18.4 mph 26.5 mph N/A   Clear
3:35 AM 35.6 °F 26.6 °F 28.4 °F 75% 30.00 in 10.0 mi NNW 13.8 mph 21.9 mph N/A   Clear
3:55 AM 35.6 °F 25.5 °F 28.4 °F 75% 29.99 in 10.0 mi NNW 17.3 mph 26.5 mph N/A   Clear
4:15 AM 35.6 °F 25.9 °F 28.4 °F 75% 29.99 in 10.0 mi NNW 16.1 mph 27.6 mph N/A   Clear
4:35 AM 35.6 °F 24.2 °F 26.6 °F 70% 29.99 in 10.0 mi NNW 21.9 mph 29.9 mph N/A   Clear
5:15 AM 35.6 °F 24.8 °F 26.6 °F 70% 29.98 in 10.0 mi NNW 19.6 mph 26.5 mph N/A   Clear
5:35 AM 33.8 °F 23.9 °F 28.4 °F 81% 29.98 in 10.0 mi NW 15.0 mph 23.0 mph N/A   Clear
6:45 AM 33.8 °F 23.2 °F 26.6 °F 75% 29.96 in 10.0 mi NNW 17.3 mph 21.9 mph N/A   Scattered Clouds
7:45 AM 33.8 °F 24.3 °F 26.6 °F 75% 29.94 in 10.0 mi NNW 13.8 mph 21.9 mph N/A   Mostly Cloudy
9:45 AM 37.4 °F 28.5 °F 21.2 °F 52% 29.90 in 10.0 mi NNW 15.0 mph 32.2 mph N/A   Overcast
10:45 AM 37.4 °F 27.8 °F 21.2 °F 52% 29.89 in 10.0 mi North 17.3 mph 33.4 mph N/A   Overcast
11:45 AM 39.2 °F 28.7 °F 24.8 °F 56% 29.86 in 10.0 mi NNW 23.0 mph 34.5 mph N/A   Overcast
12:45 PM 42.8 °F 34.8 °F 26.6 °F 53% 29.85 in 10.0 mi NNW 17.3 mph 32.2 mph N/A   Scattered Clouds
1:45 PM 41.0 °F 31.6 °F 24.8 °F 53% 29.83 in 10.0 mi NNW 20.7 mph 34.5 mph N/A   Scattered Clouds
2:45 PM 42.8 °F 34.0 °F 24.8 °F 49% 29.82 in 10.0 mi NNW 20.7 mph 34.5 mph N/A   Overcast
3:45 PM 42.8 °F 34.0 °F 24.8 °F 49% 29.82 in 10.0 mi NNW 20.7 mph 34.5 mph N/A   Overcast
4:45 PM 42.8 °F 36.2 °F 23.0 °F 46% 29.83 in 10.0 mi NNW 12.7 mph 28.8 mph N/A   Overcast
5:45 PM 42.8 °F 34.5 °F 21.2 °F 42% 29.83 in 10.0 mi NW 18.4 mph 29.9 mph N/A   Overcast
6:45 PM 41.0 °F 32.8 °F 21.2 °F 45% 29.84 in 10.0 mi NNW 16.1 mph 28.8 mph N/A   Overcast
7:45 PM 39.2 °F 30.5 °F 21.2 °F 49% 29.85 in 10.0 mi NNW 16.1 mph 28.8 mph N/A   Overcast
8:45 PM 39.2 °F 31.6 °F 23.0 °F 52% 29.85 in 10.0 mi NNW 12.7 mph 24.2 mph N/A   Overcast
9:15 PM 37.4 °F 28.2 °F 23.0 °F 56% 29.84 in 10.0 mi NNW 16.1 mph 21.9 mph N/A   Overcast
9:35 PM 37.4 °F 29.3 °F 23.0 °F 56% 29.84 in 10.0 mi NNW 12.7 mph 21.9 mph N/A   Overcast
9:55 PM 35.6 °F 25.9 °F 23.0 °F 60% 29.84 in 10.0 mi NNW 16.1 mph 21.9 mph N/A   Overcast
10:35 PM 35.6 °F 25.5 °F 23.0 °F 60% 29.84 in 10.0 mi NW 17.3 mph 21.9 mph N/A   Overcast
10:55 PM 35.6 °F 26.2 °F 23.0 °F 60% 29.83 in 10.0 mi NNW 15.0 mph 20.7 mph N/A   Overcast
11:15 PM 33.8 °F 25.3 °F 23.0 °F 65% 29.83 in 10.0 mi NW 11.5 mph - N/A   Mostly Cloudy
11:35 PM 33.8 °F 23.9 °F 23.0 °F 65% 29.82 in 10.0 mi NNW 15.0 mph 19.6 mph N/A   Scattered Clouds
11:55 PM 33.8 °F 23.9 °F 23.0 °F 65% 29.83 in 10.0 mi NW 15.0 mph 20.7 mph N/A   Clear